Location: Berlin
(52.5200°N, 13.4050°E)
Time: 20:45:07
(UTC+01:00)

ISS - Visible Passes

Search period start: 25 February 2021 00:00
Search period end: 07 March 2021 00:00
Orbit: 417 x 422 km, 51.6° (Epoch: 26 February)

Date Brightness Start Highest point End Pass type
(mag) Time Alt. Az. Time Alt. Az. Time Alt. Az.
25 Feb -1.9 04:50:14 22° SSE 04:50:48 23° SSE 04:53:32 10° E visible
25 Feb -3.4 06:23:54 10° WSW 06:27:14 63° SSE 06:30:35 10° E visible
26 Feb -0.9 04:04:45 14° ESE 04:04:45 14° ESE 04:05:47 10° ESE visible
26 Feb -3.2 05:37:43 19° SW 05:39:50 52° SSE 05:43:08 10° E visible
27 Feb -3.0 04:52:10 40° S 04:52:27 41° SSE 04:55:39 10° E visible
28 Feb -1.4 04:06:33 21° ESE 04:06:33 21° ESE 04:08:07 10° E visible
28 Feb -3.7 05:39:31 21° WSW 05:41:39 73° S 05:45:00 10° E visible
01 Mar -3.7 04:53:52 59° SSW 04:54:11 63° SSE 04:57:32 10° E visible
02 Mar -1.9 04:08:11 29° E 04:08:11 29° E 04:10:02 10° E visible
02 Mar -3.8 05:41:08 19° W 05:43:27 78° S 05:46:49 10° E visible
03 Mar -0.3 03:22:28 10° E 03:22:28 10° E 03:22:31 10° E visible
03 Mar -3.8 04:55:25 59° WSW 04:55:58 78° S 04:59:20 10° E visible
04 Mar -2.3 04:09:42 35° E 04:09:42 35° E 04:11:50 10° E visible
04 Mar -3.6 05:42:40 16° W 05:45:12 65° SSW 05:48:33 10° ESE visible
05 Mar -0.5 03:24:00 12° E 03:24:00 12° E 03:24:18 10° E visible
05 Mar -3.8 04:56:57 49° WSW 04:57:43 74° S 05:01:03 10° ESE visible
06 Mar -2.6 04:11:15 40° ESE 04:11:15 40° ESE 04:13:34 10° E visible
06 Mar -3.2 05:44:12 14° W 05:46:50 43° SSW 05:50:03 10° SE visible
